GW5098 Weather Reports


Display with metric or nautical units.
time (UTC)temp
F
wind
direction
speed
MPH
gust
MPH
rain 1hr
in
rain 24hr
in
rain mn
in
humidity
%
barometer
mb
20260507064801 51 7 2.0 6.0 0.00 0.00 0.00 78 1016.8
20260507064304 52 301 0.0 3.0 0.00 0.00 0.00 77 1016.8
20260507063801 51 319 2.0 6.0 0.00 0.00 0.00 78 1016.6
20260507063307 51 270 0.0 6.0 0.00 0.00 0.00 79 1016.6
20260507062803 50 292 1.0 3.0 0.00 0.00 0.00 80 1016.4
20260507062305 50 306 0.0 3.0 0.00 0.00 0.00 80 1016.4
20260507061802 49 286 0.0 3.0 0.00 0.00 0.00 81 1016.6
20260507061304 49 287 2.0 3.0 0.00 0.00 0.00 82 1016.5
20260507060751 49 256 1.0 3.0 0.00 0.00 0.00 82 1016.5
20260507060251 49 284 0.0 3.0 0.00 0.00 0.00 82 1016.4
20260507060011 49 264 0.0 3.0 0.00 0.00 0.00 83 1016.3
20260507055251 48 254 1.0 3.0 0.00 0.00 0.00 83 1016.4
20260507054751 48 269 1.0 3.0 0.00 0.00 0.00 84 1016.1
20260507054251 48 330 0.0 2.0 0.00 0.00 0.00 84 1016.3
20260507053737 48 320 0.0 2.0 0.00 0.00 0.00 85 1016.2
20260507053232 47 264 1.0 3.0 0.00 0.00 0.00 85 1016.2
20260507052730 47 281 0.0 3.0 0.00 0.01 0.00 86 1016.2
20260507052453 47 274 0.0 2.0 0.00 0.01 0.00 86 1016.2
20260507051730 47 280 1.0 2.0 0.00 0.01 0.00 86 1016.2
20260507051230 47 288 0.0 1.0 0.00 0.01 0.00 86 1015.9
20260507050729 47 284 0.0 1.0 0.00 0.01 0.00 86 1015.9
20260507050229 47 279 0.0 1.0 0.00 0.01 0.00 87 1015.9
20260507045729 46 279 0.0 1.0 0.00 0.01 0.00 87 1016.1
20260507045229 46 276 0.0 3.0 0.00 0.01 0.00 87 1015.7
20260507044729 46 297 0.0 3.0 0.00 0.01 0.00 87 1015.7
20260507044228 46 286 0.0 3.0 0.00 0.01 0.00 87 1015.7
20260507043731 46 285 0.0 3.0 0.00 0.01 0.00 87 1015.7
20260507043229 46 298 0.0 2.0 0.00 0.01 0.00 87 1015.8
20260507042730 46 305 0.0 2.0 0.00 0.01 0.00 87 1015.5
20260507042230 46 312 1.0 2.0 0.00 0.01 0.00 87 1015.5
20260507041730 46 272 0.0 2.0 0.00 0.01 0.00 87 1015.4
20260507041230 46 298 0.0 2.0 0.00 0.01 0.00 88 1015.3
20260507040959 46 292 1.0 2.0 0.00 0.01 0.00 88 1015.4
20260507040218 46 290 0.0 3.0 0.00 0.01 0.00 88 1015.4
20260507035717 46 293 1.0 3.0 0.00 0.01 0.00 88 1015.2
20260507035442 46 277 1.0 3.0 0.00 0.01 0.00 89 1015.1
20260507034717 46 302 0.0 1.0 0.00 0.01 0.00 89 1015.4
20260507034218 46 305 0.0 1.0 0.00 0.01 0.00 89 1015.3
20260507033716 46 305 1.0 1.0 0.00 0.01 0.00 89 1015.2
20260507033216 46 304 0.0 1.0 0.00 0.01 0.00 89 1015.2
20260507033200 46 304 0.0 1.0 0.00 0.01 0.00 89 1015.3
20260507032216 46 304 0.0 1.0 0.00 0.01 0.00 89 1015.3
20260507031717 46 304 0.0 1.0 0.00 0.01 0.00 89 1015.1
20260507031217 47 304 0.0 1.0 0.00 0.01 0.00 89 1015.1
20260507030717 47 304 0.0 1.0 0.00 0.01 0.00 89 1015.1
20260507030217 47 304 0.0 0.0 0.00 0.01 0.00 88 1015.2
20260507025717 47 304 0.0 1.0 0.00 0.01 0.00 88 1015.1
20260507025217 47 304 0.0 1.0 0.00 0.01 0.00 88 1015.0
20260507024722 47 305 0.0 1.0 0.00 0.01 0.00 88 1014.8
20260507024442 47 303 0.0 1.0 0.00 0.01 0.00 88 1015.1
20260507023702 47 304 0.0 1.0 0.00 0.01 0.00 88 1014.9
20260507023202 47 304 0.0 0.0 0.00 0.01 0.00 88 1015.0
20260507022702 47 304 0.0 0.0 0.00 0.01 0.00 87 1015.0
20260507022202 47 304 0.0 0.0 0.00 0.01 0.00 87 1014.8
20260507021702 47 304 0.0 0.0 0.00 0.01 0.00 87 1014.8
20260507021200 47 304 0.0 1.0 0.00 0.01 0.00 87 1014.7
20260507020702 47 305 1.0 1.0 0.00 0.01 0.00 87 1014.7
20260507020201 47 305 0.0 1.0 0.00 0.01 0.00 87 1014.7
20260507015927 47 305 0.0 1.0 0.00 0.01 0.00 86 1014.8
20260507015200 48 303 0.0 1.0 0.00 0.01 0.00 86 1014.7
20260507014700 47 303 0.0 1.0 0.00 0.01 0.00 86 1014.5
20260507014201 47 303 0.0 0.0 0.00 0.01 0.00 86 1014.7
20260507013702 48 303 0.0 0.0 0.00 0.01 0.00 86 1014.7
20260507013202 48 303 0.0 1.0 0.00 0.01 0.00 85 1014.4
20260507012702 48 305 0.0 1.0 0.00 0.01 0.00 85 1014.4
20260507012428 48 302 0.0 1.0 0.00 0.01 0.00 85 1014.6
20260507011702 48 305 1.0 1.0 0.00 0.01 0.00 85 1014.5
20260507011201 48 293 0.0 1.0 0.00 0.01 0.00 84 1014.6
20260507010701 48 303 0.0 3.0 0.00 0.01 0.00 84 1014.4
20260507010201 48 310 0.0 3.0 0.00 0.01 0.00 84 1014.5
20260507005701 48 293 0.0 2.0 0.00 0.01 0.00 84 1014.4
20260507005200 48 278 0.0 3.0 0.00 0.01 0.00 85 1014.3
20260507004928 48 323 0.0 3.0 0.00 0.01 0.00 85 1014.4
20260507004201 48 298 0.0 2.0 0.00 0.01 0.00 86 1014.1
20260507003701 48 295 0.0 2.0 0.00 0.01 0.00 87 1014.3
20260507003203 48 293 0.0 2.0 0.00 0.01 0.00 87 1014.3
20260507002701 48 312 0.0 1.0 0.00 0.01 0.00 87 1014.1
20260507002201 48 309 0.0 1.0 0.00 0.01 0.00 88 1014.4
20260507001929 48 308 0.0 0.0 0.00 0.01 0.00 88 1014.2
20260507001202 49 308 0.0 0.0 0.00 0.01 0.00 88 1014.3
20260507001149 49 308 0.0 1.0 0.00 0.01 0.00 87 1014.3
20260507000431 49 308 0.0 1.0 0.00 0.01 0.00 86 1014.2
20260506235652 49 308 0.0 1.0 0.00 0.01 0.00 85 1014.2
20260506235148 49 308 0.0 1.0 0.00 0.01 0.00 85 1014.2
20260506235128 49 307 0.0 1.0 0.00 0.01 0.00 84 1014.2
20260506234141 49 307 0.0 0.0 0.00 0.01 0.00 85 1014.2
20260506233909 49 307 0.0 0.0 0.00 0.01 0.00 84 1014.0
20260506233142 49 307 0.0 1.0 0.00 0.01 0.00 84 1014.2
20260506232641 49 307 0.0 1.0 0.00 0.01 0.00 84 1014.1
20260506232408 49 307 0.0 1.0 0.00 0.01 0.00 84 1014.1
20260506231907 49 307 0.0 1.0 0.00 0.01 0.00 84 1014.1
20260506231143 49 307 0.0 1.0 0.00 0.01 0.00 83 1014.0
20260506230643 49 307 0.0 1.0 0.00 0.01 0.00 83 1014.2
20260506230142 49 307 0.0 1.0 0.00 0.01 0.00 83 1013.8
20260506225630 49 307 0.0 1.0 0.00 0.01 0.00 83 1014.0
20260506225130 49 307 0.0 1.0 0.00 0.01 0.00 84 1014.0
20260506224631 49 307 0.0 0.0 0.00 0.01 0.00 85 1013.8
20260506224131 49 307 0.0 0.0 0.00 0.01 0.00 85 1014.1
20260506223630 49 307 0.0 0.0 0.00 0.01 0.00 84 1013.8
20260506223131 49 307 0.0 0.0 0.00 0.01 0.00 84 1013.8
20260506223118 49 307 0.0 0.0 0.00 0.01 0.00 84 1013.8
20260506222131 49 307 0.0 0.0 0.00 0.01 0.00 84 1013.7
20260506222126 49 307 0.0 0.0 0.00 0.01 0.00 84 1013.8
20260506221129 49 307 0.0 0.0 0.00 0.01 0.00 84 1013.7
20260506220628 49 307 0.0 1.0 0.00 0.01 0.00 84 1013.9
20260506220222 49 307 0.0 1.0 0.00 0.01 0.00 84 1013.7
20260506215628 49 307 0.0 1.0 0.00 0.01 0.01 83 1013.6
20260506215129 49 307 0.0 1.0 0.00 0.01 0.01 83 1013.8
20260506214629 49 307 0.0 1.0 0.00 0.01 0.01 82 1013.7
20260506214129 49 307 0.0 1.0 0.00 0.01 0.01 82 1013.5
20260506213628 49 307 0.0 1.0 0.00 0.01 0.01 81 1013.5
20260506213128 49 307 0.0 1.0 0.00 0.01 0.01 81 1013.6
20260506212631 49 307 0.0 1.0 0.00 0.01 0.01 82 1013.6
20260506212131 49 307 0.0 1.0 0.00 0.01 0.01 82 1013.5
20260506211619 50 307 0.0 1.0 0.00 0.01 0.01 82 1013.6
20260506211116 49 307 0.0 1.0 0.00 0.01 0.01 81 1013.4
20260506210616 50 307 0.0 1.0 0.00 0.01 0.01 81 1013.4
20260506210105 50 307 0.0 1.0 0.00 0.01 0.01 81 1013.4
20260506205605 50 307 0.0 0.0 0.00 0.01 0.01 80 1013.5
20260506205105 50 307 0.0 1.0 0.00 0.01 0.01 80 1013.6
20260506204604 50 307 0.0 1.0 0.00 0.01 0.01 79 1013.7
20260506204104 50 307 0.0 0.0 0.00 0.01 0.01 79 1013.4
20260506203604 50 307 0.0 1.0 0.00 0.01 0.01 79 1013.5
20260506203101 50 307 0.0 1.0 0.00 0.01 0.01 78 1013.4
20260506202601 50 306 0.0 1.0 0.00 0.01 0.01 78 1013.5
20260506202103 50 305 0.0 1.0 0.00 0.01 0.01 78 1013.4
20260506201831 50 306 0.0 1.0 0.00 0.01 0.01 78 1013.6
20260506201101 50 304 0.0 1.0 0.00 0.01 0.01 78 1013.4
20260506200601 50 302 0.0 1.0 0.00 0.01 0.01 78 1013.2
20260506195602 50 305 0.0 1.0 0.00 0.01 0.01 78 1013.2
20260506195104 50 290 0.0 1.0 0.00 0.01 0.01 78 1013.0
20260506194602 50 298 0.0 1.0 0.00 0.01 0.01 77 1013.0
20260506194106 50 305 0.0 2.0 0.00 0.01 0.01 77 1013.0
20260506193602 51 305 0.0 2.0 0.00 0.01 0.01 77 1012.8
20260506193104 51 297 0.0 2.0 0.00 0.01 0.01 76 1013.1
20260506192604 51 283 0.0 2.0 0.00 0.01 0.01 76 1012.9
20260506192109 51 302 0.0 2.0 0.00 0.01 0.01 76 1012.8
20260506191603 51 311 0.0 3.0 0.00 0.01 0.01 76 1012.7
20260506191103 51 81 1.0 3.0 0.00 0.01 0.01 76 1012.6
20260506190603 51 289 0.0 2.0 0.00 0.01 0.01 77 1012.7
20260506190101 51 269 0.0 2.0 0.00 0.01 0.01 77 1012.5
20260506185601 51 313 0.0 2.0 0.00 0.01 0.01 77 1012.6
20260506185105 51 259 1.0 2.0 0.00 0.01 0.01 78 1012.7
20260506184601 51 288 1.0 2.0 0.00 0.01 0.01 78 1012.4
20260506184101 51 284 0.0 1.0 0.00 0.01 0.01 79 1012.4
20260506183827 51 309 1.0 2.0 0.00 0.01 0.01 79 1012.3
20260506183101 51 343 1.0 2.0 0.00 0.01 0.01 79 1012.4
20260506182600 51 309 0.0 1.0 0.00 0.01 0.01 79 1012.4
20260506182101 51 293 0.0 2.0 0.00 0.01 0.01 79 1012.3
20260506181600 51 317 0.0 2.0 0.00 0.01 0.01 79 1012.3
20260506181323 51 304 0.0 2.0 0.00 0.01 0.01 79 1012.3
20260506180601 51 298 0.0 2.0 0.00 0.01 0.01 79 1012.0
20260506175601 51 299 0.0 2.0 0.00 0.01 0.01 78 1012.0
20260506175328 51 299 1.0 3.0 0.00 0.01 0.01 78 1011.8
20260506174600 51 276 0.0 4.0 0.00 0.01 0.01 78 1011.8
20260506174101 51 305 0.0 4.0 0.00 0.01 0.01 78 1011.9
20260506173606 51 314 1.0 7.0 0.00 0.01 0.01 78 1011.7
20260506173602 51 327 2.0 6.0 0.00 0.01 0.01 78 1011.8
20260506172601 51 12 3.0 7.0 0.00 0.01 0.01 79 1011.7
20260506172101 51 346 2.0 4.0 0.00 0.01 0.01 79 1011.6
20260506171600 51 300 0.0 4.0 0.00 0.01 0.01 80 1011.7
20260506171101 51 5 1.0 4.0 0.00 0.01 0.01 80 1011.5
20260506170832 51 343 0.0 7.0 0.00 0.01 0.01 80 1011.5
20260506170108 51 128 1.0 7.0 0.00 0.01 0.01 80 1011.3
20260506165604 51 312 1.0 3.0 0.00 0.01 0.01 80 1011.5
20260506165102 51 57 2.0 6.0 0.00 0.01 0.01 80 1011.4
20260506164600 52 10 1.0 6.0 0.00 0.01 0.01 79 1011.3
20260506164103 52 67 2.0 6.0 0.00 0.01 0.01 79 1011.5
20260506163602 51 326 1.0 7.0 0.00 0.01 0.01 80 1011.3
20260506163101 51 335 2.0 7.0 0.00 0.01 0.01 79 1011.2
20260506162600 51 17 2.0 8.0 0.00 0.01 0.01 79 1011.4
20260506162102 51 43 4.0 8.0 0.00 0.01 0.01 79 1011.3
20260506161602 51 256 0.0 7.0 0.00 0.01 0.01 80 1011.3
20260506161333 51 289 1.0 7.0 0.00 0.01 0.01 80 1011.3
20260506160831 51 348 2.0 7.0 0.00 0.01 0.01 79 1011.3
20260506155601 51 310 4.0 8.0 0.00 0.01 0.01 78 1011.3
20260506155100 52 277 2.0 8.0 0.00 0.01 0.01 78 1011.2
20260506154603 52 272 4.0 8.0 0.00 0.01 0.01 77 1011.3
20260506154102 52 264 0.0 8.0 0.00 0.01 0.01 77 1011.3
20260506153602 52 275 0.0 8.0 0.00 0.01 0.01 76 1011.1
20260506153102 52 36 3.0 4.0 0.00 0.01 0.01 74 1011.1
20260506152601 52 266 0.0 4.0 0.00 0.01 0.01 74 1011.1
20260506152102 53 286 1.0 3.0 0.00 0.01 0.01 73 1011.1
20260506151603 53 283 0.0 6.0 0.00 0.01 0.01 72 1011.1
20260506151102 53 45 2.0 8.0 0.00 0.01 0.01 72 1010.9
20260506150602 53 25 2.0 8.0 0.00 0.01 0.01 72 1011.2
20260506150101 53 241 0.0 6.0 0.00 0.01 0.01 72 1011.0
20260506145601 53 11 1.0 7.0 0.00 0.01 0.01 71 1011.1
20260506145100 53 39 5.0 7.0 0.00 0.01 0.01 71 1011.0
20260506144602 53 310 2.0 6.0 0.00 0.01 0.01 70 1011.1
20260506144101 53 300 2.0 4.0 0.00 0.01 0.01 70 1011.0
20260506143600 53 313 0.0 4.0 0.00 0.01 0.01 70 1010.9
20260506143337 53 267 2.0 6.0 0.00 0.01 0.01 70 1011.0
20260506142602 53 258 1.0 7.0 0.00 0.01 0.01 70 1010.9
20260506142103 53 253 3.0 8.0 0.00 0.01 0.01 68 1010.9
20260506141602 53 20 5.0 8.0 0.00 0.01 0.01 67 1010.9
20260506141102 54 278 0.0 7.0 0.00 0.01 0.01 68 1010.9
20260506140829 54 263 2.0 7.0 0.00 0.01 0.01 66 1010.8
20260506135600 54 5 3.0 9.0 0.00 0.01 0.01 66 1011.0
20260506135108 54 296 1.0 9.0 0.00 0.01 0.01 65 1010.9
20260506134606 55 278 3.0 6.0 0.00 0.01 0.01 64 1010.9
20260506134106 54 266 2.0 6.0 0.00 0.01 0.01 66 1010.7
20260506134101 55 322 2.0 6.0 0.00 0.01 0.01 65 1010.7
20260506133100 54 143 4.0 8.0 0.00 0.01 0.01 65 1010.8
20260506132603 55 279 4.0 8.0 0.00 0.01 0.01 65 1010.9
20260506132103 54 266 1.0 7.0 0.00 0.01 0.01 66 1010.8
20260506131603 54 352 3.0 7.0 0.00 0.01 0.01 66 1010.8
20260506131102 55 52 3.0 8.0 0.00 0.01 0.01 66 1010.7
20260506130602 55 21 2.0 8.0 0.00 0.01 0.01 67 1010.6
20260506125603 54 70 2.0 9.0 0.00 0.01 0.01 67 1010.7
20260506125054 54 286 2.0 8.0 0.00 0.01 0.01 67 1010.6
20260506124557 53 322 2.0 8.0 0.00 0.01 0.01 68 1010.6
20260506124053 53 274 0.0 9.0 0.00 0.01 0.01 69 1010.6
20260506123555 53 16 1.0 9.0 0.00 0.01 0.01 68 1010.5
20260506123323 53 355 1.0 6.0 0.00 0.01 0.01 69 1010.7
20260506122552 53 185 1.0 8.0 0.00 0.01 0.01 69 1010.5
20260506122053 53 10 4.0 8.0 0.00 0.01 0.01 69 1010.7
20260506121553 53 125 1.0 7.0 0.00 0.01 0.01 70 1010.5
20260506121325 53 297 2.0 8.0 0.00 0.01 0.01 70 1010.7
20260506120553 53 357 3.0 8.0 0.00 0.01 0.01 70 1010.6
20260506120324 53 76 1.0 7.0 0.00 0.01 0.01 70 1010.5
20260506115553 53 323 0.0 7.0 0.00 0.01 0.01 70 1010.5
20260506115053 53 258 1.0 9.0 0.00 0.01 0.01 69 1010.4
20260506114554 53 9 4.0 9.0 0.00 0.01 0.01 68 1010.3
20260506114053 54 335 3.0 8.0 0.00 0.01 0.01 68 1010.3
20260506113823 54 286 2.0 8.0 0.00 0.01 0.01 69 1010.2
20260506113054 55 308 2.0 6.0 0.00 0.01 0.01 69 1010.2
20260506112553 54 356 1.0 6.0 0.00 0.01 0.01 69 1010.4
20260506112053 54 249 1.0 6.0 0.00 0.01 0.01 69 1010.3
20260506111552 54 19 3.0 6.0 0.00 0.01 0.01 68 1010.3
20260506111030 54 267 2.0 9.0 0.00 0.01 0.01 70 1010.2
20260506110531 54 236 2.0 9.0 0.00 0.01 0.01 69 1010.3
20260506110030 54 275 0.0 6.0 0.00 0.01 0.01 72 1010.2
20260506105535 54 285 1.0 8.0 0.00 0.01 0.01 73 1010.4
20260506105030 54 251 0.0 8.0 0.00 0.01 0.01 73 1010.3
20260506105019 54 233 2.0 8.0 0.00 0.01 0.01 74 1010.2
20260506104028 54 16 2.0 7.0 0.00 0.01 0.01 74 1010.0
20260506103531 54 275 0.0 7.0 0.00 0.01 0.01 76 1010.2
20260506103510 54 1 0.0 7.0 0.00 0.01 0.01 76 1010.1
20260506102521 53 349 2.0 9.0 0.00 0.01 0.01 76 1010.1
20260506102020 53 335 5.0 9.0 0.00 0.01 0.01 78 1010.1
20260506101521 53 95 2.0 7.0 0.00 0.01 0.01 80 1010.2
20260506101020 53 300 2.0 9.0 0.00 0.01 0.01 81 1010.0
20260506100519 53 270 1.0 9.0 0.00 0.01 0.01 80 1010.0
20260506100020 53 29 2.0 7.0 0.00 0.01 0.01 81 1009.9
20260506095520 53 315 2.0 7.0 0.00 0.01 0.01 80 1009.9
20260506095020 53 244 0.0 7.0 0.00 0.01 0.01 81 1009.9
20260506095013 53 344 4.0 10.0 0.00 0.01 0.01 80 1009.9
20260506094019 53 67 3.0 10.0 0.00 0.01 0.01 79 1009.8
20260506093520 53 2 2.0 8.0 0.00 0.01 0.01 80 1009.8
20260506093507 53 357 5.0 8.0 0.00 0.01 0.01 79 1009.7
20260506092520 53 287 2.0 7.0 0.00 0.02 0.01 81 1009.7
20260506092020 53 284 1.0 7.0 0.00 0.02 0.01 81 1009.7
20260506091519 53 331 2.0 8.0 0.00 0.02 0.01 81 1009.6
20260506091019 53 12 2.0 8.0 0.00 0.02 0.01 81 1009.5
20260506090520 53 278 3.0 6.0 0.00 0.02 0.01 82 1009.5
20260506090020 53 281 2.0 8.0 0.00 0.02 0.01 82 1009.6
20260506085520 53 300 4.0 8.0 0.00 0.02 0.01 83 1009.5
20260506085020 53 303 1.0 4.0 0.00 0.02 0.01 84 1009.6
20260506084502 52 356 2.0 6.0 0.00 0.02 0.01 84 1009.5
20260506084234 52 349 3.0 9.0 0.00 0.02 0.01 85 1009.4
20260506083736 52 356 6.0 9.0 0.00 0.02 0.01 85 1009.5
20260506083232 52 284 2.0 6.0 0.00 0.02 0.01 86 1009.5
20260506082450 52 292 3.0 6.0 0.00 0.02 0.01 86 1009.4
20260506081952 51 250 1.0 6.0 0.00 0.02 0.01 87 1009.5
20260506081447 52 353 4.0 6.0 0.00 0.02 0.01 87 1009.3
20260506080951 51 353 1.0 3.0 0.00 0.02 0.01 87 1009.4
20260506080447 51 269 0.0 3.0 0.00 0.02 0.01 88 1009.3
20260506073452 50 325 4.0 8.0 0.00 0.02 0.01 90 1009.5
20260506072947 50 285 1.0 8.0 0.00 0.02 0.01 91 1009.3
20260506072447 50 277 1.0 8.0 0.00 0.02 0.01 91 1009.5
20260506071947 49 298 4.0 7.0 0.00 0.02 0.01 91 1009.5
20260506071447 49 257 1.0 8.0 0.00 0.02 0.01 92 1009.4
20260506071208 49 287 3.0 8.0 0.00 0.02 0.01 92 1009.3
20260506070446 49 241 1.0 4.0 0.00 0.02 0.01 92 1009.4